COSMOS 2251 DEB, 37959

Orbit data source: Space-Track

COSMOS 2251 DEB, 37959 is space debris in LEO originally from a launch on Wed, 16 Jun 1993 UTC launched from the Plesetsk Missile And Space Complex (PKMTR). The debris from Iridium 33, an American commercial communications satellite, has been tracked extensively since its accidental collision with the defunct Russian satellite Cosmos 2251 in 2009. This event, occurring at high speed in low Earth orbit (LEO), generated thousands of pieces of space debris, significantly increasing the risk of further collisions. The Iridium 33 debris cloud has impacted space traffic management and orbital debris mitigation strategies, making it a subject of ongoing study in space situational awareness.

Loading next visibility...
Identifier
37959, 1993-036BPJ
Orbit
LEO
Country
Flag of CISCIS
Related business
Manufacturer
Unknown
Mission
Spacecraft
Bus & Motor
Unknown
Mass
Unknown
Launch date (UTC)
1993-06-16 (33 years ago)
Launch vehicle
Unknown
Launch site
Plesetsk Missile And Space Complex (PKMTR)
Object type
Payload
Rocket body
Debris
Shape & HBR
Unknown shape, 0.1 m
Radar Cross Section
Small (<0.1 m²)

Expand to show TLE details & history
Last TLE update: 1 day ago

TLE from 1 day ago
0 COSMOS 2251 DEB
1 37959U 93036BPJ 26120.51869904  .00001943  00000-0  41065-3 0  9993
2 37959  74.0080 152.2799 0059239 259.5261 253.7626 14.58978849821507
Epoch: 2026-04-30T12:26Z
TLE epoch observation values (Epoch: 2026-04-30T12:26:55.597Z)
Latitude
26.26181°
Longitude
-81.0012°
Altitude
711.324 km
Speed
7.496 km/s
True Right ascension
21h 36m 46s
True Declination
26° 07' 29"
Sunlit
Object was in daylight at epoch
Visualization orbit readout
Latitude
Unknown
Longitude
Unknown
Altitude
Unknown
Speed
Unknown
Apparent Right ascension
Unknown
Apparent Declination
Unknown
Sunlit
N/A
Visualization observer readout
Local Sidereal Time
19:49:17
Azimuth
Unknown
Elevation
Unknown
Doppler factor
Unknown
Orbital elements
Apogee altitude
735.969 km
Perigee altitude
652.179 km
Semi-major axis
7,072.211 km
Eccentricity
0.00592
Inclination
74.008°
RAAN
152.2799°
Arg. of periapsis
259.5261°
True anomaly
253.11221°
Mean anomaly
253.7626°
Eccentric anomaly
253.43727°
Mean motion
3.64931 °/min
Orbital period
98.65 mins
BSTAR
0.00041065
Loading maneuver chart data...
Computing Atmospheric mass density...

Documentation

Showing up to 5 results
|